Weather History for Whiting Fld NAS, FL

Change the Weather History Date:

Saturday, April 12, 2014

  Actual Average Record
Temperature  
Mean Temperature 65 °F -  
Max Temperature 81 °F 74 °F 82 °F (1999)
Min Temperature 50 °F 54 °F 42 °F (1998)
Growing Degree Days 15 (Base 50)    
Moisture  
Dew Point 51 °F    
Average Humidity 78    
Maximum Humidity 97    
Minimum Humidity 35    
Precipitation  
Precipitation 0.00 in - - ()
Sea Level Pressure  
Sea Level Pressure 30.13 in    
Wind  
Wind Speed 2 mph (SSE)    
Max Wind Speed 14 mph    
Max Gust Speed 16 mph    
Visibility 5 miles    
Events Fog    
Averages and records for this station are not official NWS values.
T = Trace of Precipitation, MM = Missing Value Source: NWS Daily Summary

Daily Weather History Graph

Daily Weather History Graph

Search for Another Location

Airport:

Trip Planner

Search our weather history database for the weather conditions in past years. The results will help you decide how hot, cold, wet, or windy it might be!

Date:

Astronomy

Apr. 12, 2014 Rise Set
Actual Time 6:23 AM CDT 7:14 PM CDT
Civil Twilight 5:59 AM CDT 7:38 PM CDT
Nautical Twilight 5:30 AM CDT 8:07 PM CDT
Astronomical Twilight 5:00 AM CDT 8:37 PM CDT
Moon 5:01 PM CDT (4/12) 4:39 AM CDT (4/12)
Length of Visible Light 13h 39m
Length of Day
12h 50m
Waxing Gibbous, 93% of the Moon is Illuminated
Apr 12
Waxing Gibbous
Apr 15
Full
Apr 22
Last Quarter
Apr 29
New
May 6
First Quarter

Hourly Weather History & Observations

Time (CDT) Temp. Dew Point Humidity Pressure Visibility Wind Dir Wind Speed Gust Speed Precip Events Conditions
12:56 AM 52.0 °F 50.0 °F 93% 30.12 in 4.0 mi Calm Calm - 0.00 in   Clear
1:33 AM 52.0 °F 50.0 °F 93% 30.16 in 2.5 mi Calm Calm - N/A   Clear
1:40 AM 52.0 °F 48.9 °F 89% 30.15 in 4.0 mi Calm Calm - N/A   Clear
1:56 AM 52.0 °F 48.9 °F 89% 30.12 in 3.0 mi Calm Calm - N/A   Clear
2:06 AM 51.1 °F 48.0 °F 89% 30.15 in 2.5 mi Calm Calm - N/A   Clear
2:21 AM 52.0 °F 48.9 °F 89% 30.15 in 1.5 mi Calm Calm - N/A   Clear
2:31 AM 51.1 °F 48.9 °F 92% 30.15 in 2.5 mi Calm Calm - N/A   Clear
2:42 AM 52.0 °F 50.0 °F 93% 30.15 in 5.0 mi Calm Calm - N/A   Clear
2:52 AM 51.8 °F 48.2 °F 88% 30.14 in 1.8 mi Calm Calm - N/A   Clear
2:56 AM 51.1 °F 48.9 °F 92% 30.11 in 1.8 mi Calm Calm - N/A   Clear
3:00 AM 51.1 °F 48.9 °F 92% 30.14 in 3.0 mi Calm Calm - N/A   Clear
3:16 AM 51.1 °F 48.9 °F 92% 30.14 in 1.8 mi Calm Calm - N/A   Clear
3:46 AM 51.1 °F 48.9 °F 92% 30.15 in 1.8 mi Calm Calm - N/A   Scattered Clouds
3:48 AM 51.1 °F 48.9 °F 92% 30.15 in 2.0 mi Calm Calm - N/A   Mostly Cloudy
3:56 AM 50.0 °F 48.0 °F 93% 30.11 in 1.8 mi Calm Calm - N/A   Mostly Cloudy
4:05 AM 51.1 °F 48.9 °F 92% 30.15 in 0.5 mi Calm Calm - N/A Fog Fog
4:17 AM 51.1 °F 48.9 °F 92% 30.15 in 0.2 mi Calm Calm - N/A Fog Fog
4:56 AM 52.0 °F 50.0 °F 93% 30.12 in 0.2 mi NNE 3.5 mph - N/A Fog Fog
5:30 AM 52.0 °F 50.0 °F 93% 30.16 in 0.5 mi Calm Calm - N/A Fog Fog
5:40 AM 52.0 °F 50.0 °F 93% 30.16 in 0.2 mi Calm Calm - N/A Fog Fog
5:56 AM 51.1 °F 50.0 °F 96% 30.13 in 0.5 mi Calm Calm - N/A Fog Fog
6:05 AM 51.1 °F 48.9 °F 92% 30.17 in 0.2 mi Calm Calm - N/A Fog Fog
6:46 AM 50.0 °F 48.9 °F 96% 30.17 in 0.5 mi Calm Calm - N/A Fog Fog
6:56 AM 51.1 °F 48.9 °F 92% 30.14 in 0.5 mi Calm Calm - N/A Fog Fog
7:19 AM 54.0 °F 52.0 °F 93% 30.19 in 1.0 mi Calm Calm - N/A   Scattered Clouds
7:27 AM 54.0 °F 53.1 °F 97% 30.19 in 4.0 mi Calm Calm - N/A   Scattered Clouds
7:56 AM 57.0 °F 55.0 °F 93% 30.15 in 6.0 mi East 3.5 mph - N/A   Partly Cloudy
8:56 AM 64.0 °F 57.0 °F 78% 30.15 in 9.0 mi East 3.5 mph - N/A   Partly Cloudy
9:56 AM 70.0 °F 54.0 °F 57% 30.17 in 10.0 mi Variable 3.5 mph - N/A   Partly Cloudy
10:56 AM 75.0 °F 53.1 °F 46% 30.16 in 10.0 mi SSE 9.2 mph - N/A   Partly Cloudy
11:56 AM 78.1 °F 51.1 °F 39% 30.14 in 10.0 mi SSE 10.4 mph - N/A   Partly Cloudy
12:56 PM 80.1 °F 52.0 °F 38% 30.12 in 10.0 mi SSE 12.7 mph - N/A   Partly Cloudy
1:56 PM 80.1 °F 51.1 °F 36% 30.11 in 10.0 mi South 9.2 mph 16.1 mph N/A   Partly Cloudy
2:56 PM 80.1 °F 50.0 °F 35% 30.09 in 10.0 mi SSW 13.8 mph - N/A   Partly Cloudy
3:56 PM 80.1 °F 50.0 °F 35% 30.06 in 10.0 mi SSW 12.7 mph - N/A   Partly Cloudy
4:56 PM 78.1 °F 51.1 °F 39% 30.06 in 10.0 mi SSW 13.8 mph - N/A   Clear
5:56 PM 75.9 °F 52.0 °F 43% 30.06 in 10.0 mi South 11.5 mph - N/A   Clear
6:56 PM 71.1 °F 52.0 °F 51% 30.06 in 10.0 mi South 9.2 mph - N/A   Clear
7:56 PM 66.0 °F 51.1 °F 59% 30.06 in 10.0 mi South 6.9 mph - N/A   Clear
8:56 PM 64.0 °F 52.0 °F 65% 30.07 in 10.0 mi SE 4.6 mph - N/A   Clear
9:56 PM 63.0 °F 52.0 °F 67% 30.07 in 10.0 mi SSE 4.6 mph - N/A   Clear
10:56 PM 57.9 °F 52.0 °F 81% 30.07 in 10.0 mi SSE 3.5 mph - N/A   Clear
11:56 PM 57.0 °F 53.1 °F 87% 30.08 in 10.0 mi Calm Calm - N/A   Clear